Location: La Junie
(44.7428°N, 2.1773°E)
Time: 08:13:34
(UTC+00:00)

Cosmos 2266 Rocket - Pass Details

Date: 15 May 2026
Orbit: 933 x 1007 km, 82.9° (Epoch: 5 June)

Event Time Altitude Azimuth Distance (km) Brightness Sun altitude
Rises 22:40:48 0° 357° (N) 3,599 8.3 -24.4°
Reaches altitude 10° 22:43:25 10° 4° (N) 2,652 7.2 -24.5°
Maximum altitude 22:49:10 44° 76° (ENE) 1,271 4.5 -24.8°
Enters shadow 22:50:27 39° 107° (ESE) 1,373 4.5 -24.9°
